Total_Precipitation_Accumulation
0.00 0.00 0.00 0.00 0.00 0.00 0.00 0.00 0.00 0.00 0.01 0.00 0.00 0.01 0.01 0.00 0.00 0.03 0.05 0.07 0.02 0.00 0.03 0.05 0.10 0.15 0.13 0.10 0.21 0.52 0.98 1.41 0.75 0.41 0.31 0.46 0.48 0.51 0.45 0.53 0.84 1.14 1.09 1.21
0.02 0.01 0.00 0.00 0.00 0.00 0.00 0.00 0.00 0.00 0.00 0.00 0.00 0.00 0.00 0.00 0.00 0.01 0.01 0.11 0.03 0.00 0.01 0.02 0.05 0.05 0.05 0.13 0.43 0.53 0.59 0.76 0.68 0.47 0.39 0.35 0.39 0.57 0.47 0.62 0.73 0.90 1.12 1.33
0.02 0.01 0.00 0.01 0.00 0.00 0.00 0.00 0.00 0.00 0.00 0.00 0.00 0.00 0.00 0.01 0.01 0.02 0.00 0.00 0.00 0.00 0.02 0.03 0.03 0.03 0.03 0.04 0.24 0.33 0.46 0.52 0.55 0.56 0.64 0.63 0.75 0.78 0.82 0.63 0.60 0.70 1.01 1.36
0.07 0.00 0.02 0.00 0.00 0.00 0.00 0.00 0.00 0.00 0.00 0.00 0.00 0.00 0.00 0.00 0.01 0.00 0.00 0.00 0.00 0.02 0.01 0.00 0.00 0.00 0.02 0.10 0.43 0.36 0.43 0.45 0.46 0.52 0.56 0.59 0.73 0.56 0.46 0.53 0.51 0.69 0.62 0.99
0.09 0.03 0.04 0.02 0.00 0.00 0.01 0.00 0.00 0.00 0.00 0.05 0.02 0.00 0.03 0.05 0.02 0.00 0.01 0.02 0.02 0.03 0.02 0.02 0.02 0.01 0.03 0.15 0.42 0.39 0.48 0.64 0.55 0.61 0.63 0.58 0.57 0.54 0.55 0.60 0.66 0.74 0.78 0.70
0.01 0.02 0.06 0.03 0.00 0.00 0.00 0.02 0.00 0.00 0.02 0.07 0.01 0.01 0.01 0.01 0.03 0.07 0.14 0.11 0.08 0.07 0.05 0.04 0.04 0.05 0.07 0.19 0.42 0.57 0.59 0.53 0.51 0.72 0.79 0.61 0.56 0.58 0.72 0.78 0.78 0.86 0.91 1.02
0.00 0.01 0.01 0.01 0.01 0.01 0.02 0.12 0.20 0.21 0.10 0.04 0.00 0.02 0.02 0.06 0.16 0.28 0.32 0.14 0.08 0.06 0.11 0.14 0.15 0.13 0.11 0.21 0.33 0.51 0.68 0.81 0.70 0.88 0.90 0.90 0.93 0.98 0.90 0.95 1.00 1.03 1.03 1.28
0.06 0.06 0.00 0.01 0.00 0.02 0.02 0.08 0.27 0.38 0.19 0.08 0.15 0.09 0.18 0.36 0.38 0.44 0.32 0.24 0.20 0.24 0.27 0.28 0.21 0.14 0.16 0.28 0.34 0.48 0.99 1.32 1.35 1.21 0.95 0.82 0.69 0.69 0.80 0.90 0.98 1.09 1.22 1.35
0.11 0.08 0.02 0.01 0.01 0.02 0.08 0.11 0.10 0.54 0.36 0.21 0.12 0.11 0.58 1.05 0.79 1.22 1.33 0.82 0.67 0.55 0.44 0.28 0.16 0.14 0.19 0.30 0.43 0.57 0.78 0.86 1.03 0.85 0.62 0.63 0.66 0.69 0.76 0.82 0.86 0.88 0.98 1.11
0.08 0.21 0.04 0.02 0.04 0.01 0.07 0.12 0.44 0.91 0.87 0.37 0.02 0.06 0.41 0.67 0.73 0.80 0.68 0.52 0.40 0.32 0.24 0.19 0.13 0.18 0.16 0.27 0.55 0.95 1.11 1.05 1.10 1.03 0.93 0.67 0.60 0.60 0.56 0.51 0.56 0.60 0.63 0.65
0.08 0.23 0.15 0.14 0.13 0.07 0.10 0.30 0.38 0.59 0.46 0.53 0.28 0.40 0.77 0.65 0.86 0.64 0.20 0.18 0.20 0.22 0.21 0.17 0.10 0.15 0.16 0.29 0.41 0.55 0.92 1.49 1.81 1.66 1.38 1.07 0.83 1.15 1.17 0.90 0.89 0.86 0.76 0.70
0.15 0.24 0.12 0.09 0.07 0.06 0.16 0.24 0.48 1.06 0.72 0.47 0.53 0.64 0.93 0.76 0.40 0.69 0.32 0.24 0.11 0.13 0.19 0.14 0.11 0.10 0.11 0.13 0.20 0.37 0.50 0.75 1.09 1.29 1.67 2.08 1.77 1.50 1.60 1.52 1.41 1.36 0.98 0.84
0.41 0.69 0.60 0.32 0.26 0.19 0.26 0.34 0.46 0.66 0.97 0.74 0.97 0.79 0.96 0.72 0.71 0.93 0.49 0.10 0.07 0.16 0.23 0.19 0.16 0.18 0.19 0.18 0.23 0.36 0.46 0.70 0.94 1.13 1.23 1.75 1.84 2.14 1.67 1.61 1.69 1.44 1.16 0.97
0.84 0.80 0.64 0.50 0.50 0.48 0.48 0.28 0.36 1.06 1.71 0.99 0.53 0.45 1.17 1.32 1.22 0.62 0.21 0.15 0.15 0.23 0.28 0.23 0.32 0.46 0.50 0.55 0.60 0.58 0.66 0.73 1.03 1.06 1.25 1.13 1.34 1.68 1.91 1.42 1.33 1.31 1.30 1.16
1.12 1.49 0.84 0.55 0.26 0.30 0.42 0.34 0.33 0.65 0.72 1.27 0.62 0.71 0.76 0.85 1.06 0.83 0.37 0.23 0.25 0.32 0.29 0.29 0.34 0.50 0.62 0.80 0.76 0.73 0.75 0.72 0.77 0.89 1.01 1.19 1.39 1.49 1.89 1.59 1.53 1.45 1.46 1.78
1.42 1.87 1.38 1.14 0.56 0.62 0.74 0.30 0.25 0.34 0.43 0.48 0.38 0.62 0.50 0.53 0.60 0.80 0.61 0.43 0.38 0.38 0.37 0.28 0.24 0.30 0.34 0.43 0.60 0.66 0.83 1.09 1.09 1.05 1.04 1.65 1.32 1.38 1.40 1.76 1.76 1.88 1.47 1.65
1.51 1.68 1.82 1.79 0.65 1.02 1.85 0.57 0.19 0.36 0.70 0.62 0.96 0.60 0.31 0.47 0.59 0.53 0.62 0.56 0.65 0.52 0.41 0.38 0.32 0.38 0.43 0.49 0.61 0.79 1.10 1.38 1.55 1.68 1.87 1.63 1.81 1.84 1.66 1.46 1.65 1.91 2.13 1.95
1.48 1.62 2.18 1.91 1.22 2.53 1.19 0.23 0.25 0.40 0.57 0.59 0.52 0.42 0.43 0.38 0.57 0.49 0.52 0.72 1.02 1.25 0.69 0.54 0.53 0.49 0.62 0.66 0.61 0.81 0.97 1.26 1.54 1.90 2.10 2.37 2.00 1.99 1.92 2.00 1.74 1.69 2.08 2.17
0.64 1.27 2.50 2.23 1.64 1.16 0.77 0.72 0.69 0.62 0.63 0.49 0.45 0.52 0.45 0.27 0.36 0.51 0.52 0.61 0.89 1.22 1.38 1.03 0.82 0.77 0.77 0.72 0.85 0.90 1.01 1.04 1.24 1.65 2.11 2.42 2.33 2.08 1.73 1.82 2.29 2.02 1.88 1.94
0.48 0.88 2.33 2.62 2.31 1.69 1.00 0.36 0.28 0.56 1.01 0.51 0.30 0.36 0.45 0.56 0.81 0.96 0.89 0.66 0.71 0.85 1.06 1.45 1.22 0.75 0.62 0.68 0.64 0.80 0.89 1.01 1.26 1.54 1.64 1.79 2.10 2.33 2.69 2.39 2.27 2.62 2.31 2.08
0.91 1.50 1.93 1.73 2.29 1.21 0.38 0.42 0.44 0.83 1.06 0.42 0.30 0.33 0.56 0.78 0.91 1.28 1.19 1.14 0.98 0.95 0.88 0.81 1.06 1.19 0.87 0.68 0.59 0.59 0.82 0.98 1.37 1.40 1.63 1.63 1.57 1.78 2.15 2.43 2.54 2.38 2.45 2.26
0.79 1.33 1.82 1.92 2.38 1.50 0.38 0.52 0.68 0.81 0.51 0.31 0.35 0.44 0.40 0.77 1.06 1.24 1.11 0.91 0.70 0.60 0.49 0.37 0.35 0.55 0.86 0.80 0.69 0.59 0.57 0.83 0.85 1.05 1.16 1.27 1.51 1.53 1.65 1.78 2.09 2.32 2.47 2.49
1.74 1.21 1.26 1.07 1.02 0.68 0.46 0.49 0.44 0.32 0.30 0.44 0.52 0.94 0.85 1.08 1.44 1.47 1.17 0.85 0.63 0.45 0.31 0.21 0.18 0.24 0.32 0.35 0.49 0.67 0.76 0.62 0.66 0.67 0.75 0.95 0.96 1.07 1.21 1.35 1.67 1.85 1.91 1.92
0.97 0.66 1.04 1.01 0.64 0.47 0.61 0.37 0.29 0.24 0.29 0.40 0.76 1.11 1.58 1.51 1.46 1.26 0.88 0.64 0.47 0.34 0.28 0.19 0.17 0.20 0.22 0.22 0.30 0.42 0.54 0.62 0.67 0.69 0.68 0.68 0.77 0.94 0.89 0.95 1.14 1.32 1.60 1.86
1.16 0.88 0.80 0.99 1.07 0.75 0.53 0.54 0.58 0.48 0.36 0.38 0.53 0.69 0.70 0.66 0.66 0.58 0.50 0.42 0.31 0.27 0.22 0.15 0.14 0.13 0.17 0.13 0.19 0.28 0.31 0.31 0.36 0.40 0.44 0.53 0.61 0.71 0.73 0.84 0.93 0.94 1.26 1.34
1.15 1.31 1.04 1.31 1.69 1.42 0.89 0.56 0.56 0.62 0.63 0.51 0.46 0.61 0.62 0.42 0.47 0.43 0.47 0.42 0.38 0.33 0.24 0.17 0.14 0.12 0.16 0.18 0.26 0.31 0.32 0.35 0.42 0.49 0.50 0.58 0.59 0.65 0.69 0.77 1.02 1.21 1.26 1.41